Date String (YYYY-MM-DD hh:mm:ss) UTC,Instrument flags,Ambient pressure (hPa),Sample flow (lpm),Bypass flow (lpm),Sample temperature (°C),Ambient temperature (°C),ASC tube jacket temperature (°C),LED temperature (°C),Box temperature (°C),Sample RH (%),Span deviation,Mass concentration (μg/m³),Mass concentration (μg/m³),Mass concentration (μg/m³)
DateTimeUTC,F1_M11,P_M11,Q1_M11,Q2_M11,T1_M11,T2_M11,T3_M11,T4_M11,T5_M11,U1_M11,ZSPAN_M11,X0_M11,X2_M11,X1_M11
2022-05-11 00:00:00,,0822.8,5.00,0.00,29.7,28.6,00.0,38.6,31.6,11.2,0000.0,0022.50,0004.91,0002.10
2022-05-11 00:01:00,,0822.8,5.00,0.00,29.8,28.7,00.0,38.6,31.6,11.0,0000.0,0021.11,0004.89,0002.10
2022-05-11 00:02:00,,0822.8,5.01,0.00,29.8,28.8,00.0,38.6,31.6,11.0,0000.0,0020.82,0004.90,0002.11
2022-05-11 00:03:00,,0822.7,5.01,0.00,29.8,28.9,00.0,38.6,31.6,10.7,0000.0,0020.40,0004.94,0002.09
2022-05-11 00:04:00,,0822.8,4.99,0.00,29.8,28.9,00.0,38.6,31.6,10.8,0000.0,0019.42,0004.94,0002.10
2022-05-11 00:05:00,,0822.6,5.00,0.00,29.8,29.0,00.0,38.7,31.7,10.5,0000.0,0019.93,0004.95,0002.09
2022-05-11 00:06:00,,0822.6,5.00,0.00,29.8,29.0,00.0,38.7,31.7,10.7,0000.0,0019.23,0004.99,0002.09
2022-05-11 00:07:00,,0822.6,5.00,0.00,29.8,29.1,00.0,38.7,31.7,10.8,0000.0,0018.99,0005.00,0002.09
2022-05-11 00:08:00,,0822.6,5.00,0.00,29.9,29.1,00.0,38.7,31.7,10.9,0000.0,0018.46,0004.97,0002.08
2022-05-11 00:09:00,,0822.5,5.00,0.00,29.9,29.1,00.0,38.7,31.7,10.5,0000.0,0018.26,0005.02,0002.10
2022-05-11 00:10:00,,0822.5,4.99,0.00,29.9,29.2,00.0,38.7,31.7,10.3,0000.0,0018.34,0004.99,0002.13
2022-05-11 00:11:00,,0822.6,4.99,0.00,29.9,29.2,00.0,38.7,31.7,10.6,0000.0,0017.59,0004.94,0002.13
2022-05-11 00:12:00,,0822.6,5.00,0.00,29.9,29.2,00.0,38.7,31.8,10.5,0000.0,0018.02,0004.97,0002.15
2022-05-11 00:13:00,,0822.6,5.01,0.00,29.9,29.3,00.0,38.7,31.8,10.5,0000.0,0018.35,0004.93,0002.15
2022-05-11 00:14:00,,0822.6,5.00,0.00,29.9,29.3,00.0,38.8,31.8,10.6,0000.0,0019.15,0004.91,0002.18
2022-05-11 00:15:00,,0822.6,5.00,0.00,30.0,29.3,00.0,38.8,31.8,10.5,0000.0,0019.93,0004.92,0002.17
2022-05-11 00:16:00,,0822.6,4.99,0.00,30.0,29.3,00.0,38.8,31.8,10.6,0000.0,0019.39,0004.88,0002.16
2022-05-11 00:17:00,,0822.5,5.00,0.00,30.0,27.9,00.0,38.8,31.5,10.6,0000.0,0019.43,0004.85,0002.17
2022-05-11 00:18:00,,0822.5,5.01,0.00,29.8,25.7,00.0,38.7,31.1,10.4,0000.0,0019.21,0004.83,0002.18
2022-05-11 00:19:00,,0822.6,4.99,0.00,29.7,25.4,00.0,38.7,31.0,10.7,0000.0,0018.62,0004.82,0002.18
2022-05-11 00:20:00,,0822.6,5.01,0.00,29.6,25.8,00.0,38.6,31.0,10.8,0000.0,0018.67,0004.87,0002.17
2022-05-11 00:21:00,,0822.5,5.00,0.00,29.6,26.4,00.0,38.6,31.1,10.6,0000.0,0018.26,0004.84,0002.15
2022-05-11 00:22:00,,0822.5,4.99,0.00,29.6,26.8,00.0,38.6,31.2,10.8,0000.0,0018.29,0004.89,0002.14
2022-05-11 00:23:00,,0822.5,5.00,0.00,29.6,27.2,00.0,38.6,31.3,11.0,0000.0,0017.92,0004.85,0002.13
2022-05-11 00:24:00,,0822.5,5.00,0.00,29.6,27.6,00.0,38.5,31.3,11.0,0000.0,0017.92,0004.92,0002.15
2022-05-11 00:25:00,,0822.5,5.00,0.00,29.6,27.9,00.0,38.5,31.4,10.9,0000.0,0017.80,0004.97,0002.14
2022-05-11 00:26:00,,0822.5,5.00,0.00,29.6,28.1,00.0,38.5,31.4,10.7,0000.0,0018.79,0005.01,0002.14
2022-05-11 00:27:00,,0822.5,5.01,0.00,29.6,28.3,00.0,38.5,31.4,11.0,0000.0,0019.30,0005.07,0002.16
2022-05-11 00:28:00,,0822.5,5.01,0.00,29.6,28.4,00.0,38.5,31.4,10.9,0000.0,0019.23,0005.15,0002.18
2022-05-11 00:29:00,,0822.5,5.01,0.00,29.6,28.5,00.0,38.5,31.5,10.5,0000.0,0019.29,0005.26,0002.18
2022-05-11 00:30:00,,0822.5,5.00,0.00,29.7,28.6,00.0,38.5,31.5,10.7,0000.0,0019.97,0005.33,0002.19
2022-05-11 00:31:00,,0822.5,4.99,0.00,29.7,28.7,00.0,38.5,31.5,10.9,0000.0,0020.51,0005.27,0002.20
2022-05-11 00:32:00,,0822.5,4.99,0.00,29.7,28.8,00.0,38.5,31.5,10.7,0000.0,0021.10,0005.37,0002.19
2022-05-11 00:33:00,,0822.5,5.00,0.00,29.7,28.8,00.0,38.6,31.6,10.7,0000.0,0022.26,0005.44,0002.22
2022-05-11 00:34:00,,0822.5,5.00,0.00,29.7,28.9,00.0,38.6,31.6,10.7,0000.0,0023.74,0005.50,0002.23
2022-05-11 00:35:00,,0822.5,5.00,0.00,29.8,28.9,00.0,38.6,31.6,10.6,0000.0,0023.40,0005.50,0002.20
2022-05-11 00:36:00,,0822.5,5.00,0.00,29.8,29.0,00.0,38.6,31.6,10.6,0000.0,0023.62,0005.60,0002.21
2022-05-11 00:37:00,,0822.5,5.00,0.00,29.8,29.0,00.0,38.6,31.7,10.8,0000.0,0023.10,0005.75,0002.24
2022-05-11 00:38:00,,0822.5,5.01,0.00,29.8,29.1,00.0,38.6,31.7,10.8,0000.0,0022.95,0005.75,0002.24
2022-05-11 00:39:00,,0822.5,5.00,0.00,29.8,29.1,00.0,38.6,31.7,11.1,0000.0,0025.54,0005.78,0002.23
2022-05-11 00:40:00,,0822.4,5.00,0.00,29.8,29.1,00.0,38.7,31.7,11.1,0000.0,0027.59,0005.78,0002.22
2022-05-11 00:41:00,,0822.5,5.00,0.00,29.9,29.1,00.0,38.7,31.7,11.4,0000.0,0029.78,0005.87,0002.23
2022-05-11 00:42:00,,0822.5,5.00,0.00,29.9,29.2,00.0,38.7,31.7,11.1,0000.0,0031.69,0006.06,0002.25
2022-05-11 00:43:00,,0822.5,5.00,0.00,29.9,29.2,00.0,38.7,31.8,11.5,0000.0,0033.91,0006.20,0002.26
2022-05-11 00:44:00,,0822.6,4.99,0.00,29.9,29.2,00.0,38.7,31.8,11.2,0000.0,0035.89,0006.22,0002.23
2022-05-11 00:45:00,,0822.6,5.00,0.00,29.9,29.2,00.0,38.7,31.8,11.2,0000.0,0035.08,0006.19,0002.23
2022-05-11 00:46:00,,0822.5,5.01,0.00,29.9,29.2,00.0,38.7,31.8,11.3,0000.0,0035.83,0006.25,0002.26
2022-05-11 00:47:00,,0822.5,5.01,0.00,29.9,29.3,00.0,38.8,31.7,11.3,0000.0,0037.55,0006.16,0002.24
2022-05-11 00:48:00,,0822.5,5.00,0.00,30.0,29.3,00.0,38.8,31.8,11.3,0000.0,0038.89,0006.09,0002.22
2022-05-11 00:49:00,,0822.5,5.00,0.00,30.0,28.8,00.0,38.8,31.7,11.3,0000.0,0038.66,0006.20,0002.20
2022-05-11 00:50:00,,0822.5,5.00,0.00,29.9,26.3,00.0,38.8,31.1,11.4,0000.0,0035.96,0006.18,0002.19
2022-05-11 00:51:00,,0822.5,5.00,0.00,29.7,24.9,00.0,38.7,30.8,11.6,0000.0,0033.81,0006.16,0002.18
2022-05-11 00:52:00,,0822.5,5.01,0.00,29.6,25.2,00.0,38.6,30.8,11.8,0000.0,0032.71,0006.04,0002.18
2022-05-11 00:53:00,,0822.5,5.01,0.00,29.5,25.8,00.0,38.6,30.9,11.9,0000.0,0030.07,0005.83,0002.14
2022-05-11 00:54:00,,0822.5,4.99,0.00,29.5,26.3,00.0,38.5,31.0,11.8,0000.0,0027.10,0005.68,0002.12
2022-05-11 00:55:00,,0822.5,5.00,0.00,29.5,26.8,00.0,38.5,31.1,11.6,0000.0,0025.17,0005.63,0002.11
2022-05-11 00:56:00,,0822.5,5.01,0.00,29.5,27.2,00.0,38.5,31.2,11.5,0000.0,0025.25,0005.57,0002.07
2022-05-11 00:57:00,,0822.6,5.00,0.00,29.5,27.6,00.0,38.5,31.3,11.5,0000.0,0025.63,0005.49,0002.05
2022-05-11 00:58:00,,0822.6,5.00,0.00,29.5,27.8,00.0,38.5,31.3,11.4,0000.0,0023.13,0005.46,0002.02
2022-05-11 00:59:00,,0822.6,5.00,0.00,29.6,28.0,00.0,38.5,31.4,11.6,0000.0,0022.63,0005.35,0002.00
